This is the latest recevied weather packets stored in our database for station/object KD7JB. If no packets are shown the sender has not sent any weather packets the latest 10 day(s).
| Time | Temp. | Humidity | Pressure | Rain* | Wind** | Luminosity | Snow |
|---|---|---|---|---|---|---|---|
| 1778006921 | 18.33° C | 44% | 1175.6 hPa | 0 mm | - | 729 W/m² | - |
| 1778006618 | 18.33° C | 46% | 1175.7 hPa | 0 mm | - | 723 W/m² | - |
| 1778006315 | 18.33° C | 44% | 1175.6 hPa | 0 mm | - | 720 W/m² | - |
| 1778006012 | 17.78° C | 47% | 1175.7 hPa | 0 mm | - | 716 W/m² | - |
| 1778005709 | 17.78° C | 46% | 1175.6 hPa | 0 mm | - | 711 W/m² | - |
| 1778005406 | 17.78° C | 45% | 1175.6 hPa | 0 mm | - | 705 W/m² | - |
| 1778005103 | 17.78° C | 48% | 1175.7 hPa | 0 mm | - | 700 W/m² | - |
| 1778004800 | 17.78° C | 47% | 1175.6 hPa | 0 mm | - | 693 W/m² | - |
| 1778004496 | 17.22° C | 46% | 1175.5 hPa | 0 mm | - | 688 W/m² | - |
| 1778004193 | 17.22° C | 48% | 1175.6 hPa | 0 mm | - | 680 W/m² | - |
| 1778003889 | 17.22° C | 48% | 1175.5 hPa | 0 mm | - | 673 W/m² | - |
| 1778003586 | 17.22° C | 47% | 1175.6 hPa | 0 mm | - | 665 W/m² | - |
| 1778003282 | 17.22° C | 47% | 1175.5 hPa | 0 mm | - | 656 W/m² | - |
| 1778002980 | 17.22° C | 46% | 1175.5 hPa | 0 mm | - | 648 W/m² | - |
| 1778002675 | 17.22° C | 47% | 1175.7 hPa | 0 mm | - | 639 W/m² | - |
| 1778002372 | 16.67° C | 49% | 1175.6 hPa | 0 mm | - | 631 W/m² | - |
| 1778002069 | 17.22° C | 47% | 1175.6 hPa | 0 mm | - | 620 W/m² | - |
| 1778001766 | 17.22° C | 44% | 1175.6 hPa | 0 mm | - | 611 W/m² | - |
| 1778001466 | 17.22° C | 46% | 1175.5 hPa | 0 mm | - | 602 W/m² | - |
| 1778001163 | 16.67° C | 48% | 1175.5 hPa | 0 mm | - | 590 W/m² | - |
| 1778000860 | 16.67° C | 50% | 1175.5 hPa | 0 mm | - | 580 W/m² | - |
| 1778000558 | 16.11° C | 50% | 1175.7 hPa | 0 mm | - | 568 W/m² | - |
| 1777999954 | 16.11° C | 51% | 1175.6 hPa | 0 mm | - | 546 W/m² | - |
| 1777999650 | 16.11° C | 50% | 1175.4 hPa | 0 mm | - | 535 W/m² | - |
| 1777999347 | 15.56° C | 49% | 1175.5 hPa | 0 mm | - | 522 W/m² | - |
* Rain latest hour (hover to see other rain measurements)
** Current wind speed in m/s (hover to see current wind gust speed)